[[{"header":{"parameterUnit":"m.s-1","parameterCategory":1,"la1":30.2991,"la2":30.254,"lo1":-89.0895,"lo2":-89.0444,"dy":0.0017,"dx":0.0017,"nx":28,"ny":28,"refTime":"2025-01-03T03:00:00:Z","depth":0,"parameterNumber":2,"parameterNumberName":"U-component_of_WINDS"},"data":[0,0,0,0,0,0,0,0,0,0,0,0,0,0,0,0,0,0,0,0,0,0,0,0,0,0,0,0,0,0,0,0,0,0,0,0,0,0,0,0,0,0,0,0,0,0,0,0,0,0,0,0,0,0,0,0,0,0,-1.5241,-1.5241,0,-1.5251,-1.5252,-1.5252,-1.5189,-1.5187,-1.5185,-1.5184,-1.5197,-1.5199,-1.5201,0,0,0,0,0,0,0,0,0,0,0,0,0,-1.5169,-1.5171,-1.5241,-1.5241,-1.5242,-1.5251,-1.5252,-1.5252,-1.5189,-1.5187,-1.5185,-1.5183,-1.5196,-1.5199,-1.5201,0,0,0,0,0,0,0,0,0,0,0,0,0,-1.5192,-1.5171,-1.5241,-1.5211,-1.5209,-1.5251,-1.5252,-1.5252,-1.519,-1.5187,-1.5184,-1.5182,-1.5195,-1.5198,-1.5201,-1.5274,0,0,-1.5211,-1.5212,0,0,0,0,0,0,0,0,-1.5191,-1.5195,-1.5216,-1.5214,-1.5211,-1.5216,-1.5231,-1.5259,-1.519,-1.5197,-1.5184,-1.518,-1.5206,-1.5208,-1.5215,-1.5274,-1.5275,-1.5211,-1.5213,-1.5214,-1.5215,0,0,0,0,0,0,0,-1.5189,-1.5194,-1.5245,-1.5216,-1.5213,-1.5198,-1.5198,-1.5236,-1.5216,-1.5196,-1.5192,-1.5194,-1.5204,-1.5213,-1.5215,-1.5275,-1.5211,-1.5213,-1.5215,-1.5216,-1.5392,-1.5394,0,0,0,0,0,0,-1.5191,-1.5193,-1.5245,-1.5246,-1.5194,-1.5202,-1.5202,-1.5217,-1.5216,-1.5213,-1.5196,-1.5191,-1.5209,-1.5212,-1.5216,-1.5299,-1.5214,-1.5217,-1.5218,-1.5389,-1.5392,-1.5395,0,0,0,0,0,0,-1.519,-1.5197,-1.5245,-1.5218,-1.5223,-1.5206,-1.5223,-1.5219,-1.5228,-1.5215,-1.5212,-1.5209,-1.5207,-1.5211,-1.5259,-1.5298,-1.5218,-1.5221,-1.5386,-1.539,-1.5394,-1.5467,0,0,0,0,0,0,-1.5188,-1.5197,-1.5224,-1.5219,-1.5225,-1.5288,-1.5226,-1.5221,-1.5233,-1.5226,-1.5226,-1.5224,-1.5205,-1.5255,-1.5262,-1.5301,-1.5223,-1.5382,-1.5387,-1.5393,-1.5461,-1.5473,-1.5483,0,0,0,0,0,-1.5186,-1.5245,-1.5226,-1.5232,-1.5258,-1.529,-1.5293,-1.527,-1.5236,-1.5263,-1.5255,-1.5224,-1.5293,-1.526,-1.5268,-1.5308,-1.5379,-1.5386,-1.5392,-1.5456,-1.547,-1.5483,0,0,0,0,0,0,-1.5257,-1.5244,-1.5222,-1.5281,-1.5287,-1.528,-1.5313,-1.5287,-1.5303,-1.5296,-1.5267,-1.5267,-1.532,-1.5319,-1.5283,-1.5377,-1.533,-1.5339,-1.5376,-1.539,-1.5401,-1.54,-1.5226,0,0,0,0,0,-1.5279,-1.5305,-1.5293,-1.5346,-1.535,-1.5331,-1.5344,-1.5325,-1.5331,-1.5333,-1.5329,-1.5335,-1.5358,-1.5374,-1.5395,-1.546,-1.5459,-1.5492,-1.5503,-1.5512,-1.552,-1.5553,-1.5567,-1.5416,-1.5416,-1.5416,0,0,-1.5325,-1.5322,-1.534,-1.536,-1.5362,-1.539,-1.5334,-1.5367,-1.5387,-1.5338,-1.5382,-1.5379,-1.5385,-1.5441,-1.5466,-1.5442,-1.5561,-1.5521,-1.5528,-1.553,-1.5561,-1.5575,-1.5587,-1.5421,-1.542,-1.5419,0,0,-1.5424,-1.5425,-1.5468,-1.5471,-1.5474,-1.5461,-1.5471,-1.5467,-1.5463,-1.5506,-1.547,-1.5494,-1.5535,-1.5539,-1.5547,-1.5646,-1.5617,-1.5654,-1.5713,-1.5745,-1.5757,-1.5767,-1.5801,-1.5814,-1.5661,-1.5661,-1.5661,0,-1.5482,-1.5522,-1.5494,-1.5528,-1.5537,-1.5493,-1.5537,-1.5541,-1.5552,-1.5559,-1.5532,-1.5581,-1.5582,-1.5638,-1.5661,-1.567,-1.568,-1.5653,-1.5757,-1.5767,-1.5777,-1.5808,-1.5821,-1.5666,-1.5665,-1.5665,-1.5664,0,-1.5592,-1.562,-1.5655,-1.5664,-1.5678,-1.5717,-1.5695,-1.5712,-1.5691,-1.5681,-1.5725,-1.5724,-1.5743,-1.5755,-1.5736,-1.5808,-1.5793,-1.5762,-1.5714,-1.5796,-1.5825,-1.5837,-1.5672,-1.567,-1.5669,-1.5668,0,0,-1.5737,-1.5728,-1.5741,-1.5744,-1.5744,-1.5765,-1.5802,-1.5818,-1.5833,-1.5842,-1.5871,-1.5905,-1.5876,-1.5885,-1.5866,-1.5895,-1.5971,-1.586,-1.586,-1.588,-1.6048,-1.6071,-1.6085,-1.5952,-1.5954,-1.5956,-1.6047,0,-1.5832,-1.5893,-1.5868,-1.5931,-1.5956,-1.5913,-1.5945,-1.5948,-1.5939,-1.5959,-1.5949,-1.5974,-1.5934,-1.5939,-1.5965,-1.5956,-1.6004,-1.5949,-1.5979,-1.598,-1.5978,-1.6101,-1.6125,-1.6211,-1.6059,-1.6061,-1.6062,0,-1.5952,-1.5963,-1.6028,-1.6021,-1.603,-1.6059,-1.6071,-1.6091,-1.6094,-1.6085,-1.6094,-1.6068,-1.6104,-1.6056,-1.6104,-1.6067,-1.6077,-1.6075,-1.6077,-1.6079,-1.6026,-1.6105,-1.6238,-1.6251,-1.608,-1.6079,-1.6078,0,-1.605,-1.6081,-1.6123,-1.6127,-1.612,-1.6141,-1.6139,-1.6139,-1.615,-1.6161,-1.6168,-1.6184,-1.6192,-1.6205,-1.6184,-1.6152,-1.6234,-1.6185,-1.6228,-1.6228,-1.6247,-1.6246,-1.6383,-1.6256,-1.6255,-1.6255,-1.6255,0,-1.6158,-1.62,-1.6166,-1.6192,-1.6237,-1.6207,-1.6253,-1.6246,-1.6246,-1.627,-1.6235,-1.6258,-1.623,-1.625,-1.6235,-1.6275,-1.628,-1.6274,-1.6269,-1.6276,-1.6277,-1.6282,-1.6275,-1.6258,-1.6258,-1.6257,-1.6257,0,-1.6275,-1.6254,-1.6297,-1.6286,-1.6284,-1.6317,-1.6308,-1.6332,-1.6319,-1.635,-1.6356,-1.6337,-1.6359,-1.634,-1.6362,-1.6351,-1.6405,-1.6392,-1.6404,-1.64,-1.6443,-1.6438,-1.6587,-1.6605,-1.6467,-1.6469,-1.647,0,-1.6345,-1.6375,-1.6367,-1.6379,-1.6379,-1.6401,-1.6411,-1.6383,-1.6395,-1.6399,-1.6422,-1.6441,-1.6455,-1.6492,-1.6481,-1.6497,-1.6484,-1.6535,-1.6486,-1.6492,-1.6483,-1.6481,-1.6483,-1.6545,-1.6546,-1.6548,-1.6549,0,-1.6472,-1.6459,-1.6475,-1.6486,-1.6499,-1.6507,-1.6513,-1.6526,-1.6497,-1.6513,-1.6534,-1.6544,-1.6565,-1.6584,-1.6597,-1.6595,-1.6567,-1.6564,-1.6575,-1.6582,-1.6587,-1.6583,-1.6429,-1.6561,-1.656,-1.6559,-1.6558,-1.6558,-1.6567,-1.659,-1.6587,-1.6605,-1.6606,-1.6611,-1.6632,-1.6621,-1.6638,-1.6652,-1.6635,-1.6661,-1.6661,-1.6674,-1.6676,-1.6696,-1.6674,-1.669,-1.6694,-1.6698,-1.6703,-1.6584,-1.6698,-1.6698,-1.6698,-1.6697,-1.6697,0,-1.669,-1.6685,-1.6702,-1.6709,-1.6723,-1.6694,-1.6698,-1.6712,-1.6734,-1.6736,-1.6749,-1.6773,-1.6791,-1.678,-1.6795,-1.6813,-1.6801,-1.6818,-1.6816,-1.6816,-1.6722,-1.6711,-1.6828,-1.6828,-1.6828,-1.6828,-1.6828,-1.6828,-1.6756,-1.6794,-1.6781,-1.6819,-1.6814,-1.6837,-1.6842,-1.6847,-1.6847,-1.6875,-1.6889,-1.6881,-1.6878,-1.6892,-1.6907,-1.6903,-1.691,-1.6931,-1.6923,-1.6836,-1.6823,-1.6811,-1.68,-1.6934,-1.6934,-1.7015,-1.7016,-1.7016]},{"header":{"parameterUnit":"m.s-1","parameterCategory":1,"la1":30.2991,"la2":30.254,"lo1":-89.0895,"lo2":-89.0444,"dy":0.0017,"dx":0.0017,"nx":28,"ny":28,"refTime":"2025-01-03T03:00:00:Z","depth":0,"parameterNumber":3,"parameterNumberName":"V-component_of_WINDS"},"data":[0,0,0,0,0,0,0,0,0,0,0,0,0,0,0,0,0,0,0,0,0,0,0,0,0,0,0,0,0,0,0,0,0,0,0,0,0,0,0,0,0,0,0,0,0,0,0,0,0,0,0,0,0,0,0,0,0,0,-3.0641,-3.064,0,-3.0569,-3.0568,-3.0567,-3.0483,-3.0481,-3.048,-3.0479,-3.0404,-3.0404,-3.0403,0,0,0,0,0,0,0,0,0,0,0,0,0,-3.0702,-3.0702,-3.0641,-3.064,-3.0639,-3.0569,-3.0568,-3.0567,-3.0483,-3.0481,-3.048,-3.0478,-3.0405,-3.0404,-3.0403,0,0,0,0,0,0,0,0,0,0,0,0,0,-3.0658,-3.0702,-3.0641,-3.0589,-3.0583,-3.0569,-3.0568,-3.0567,-3.0483,-3.0481,-3.0479,-3.0477,-3.0405,-3.0404,-3.0403,-3.0435,0,0,-3.0399,-3.0399,0,0,0,0,0,0,0,0,-3.066,-3.0656,-3.0597,-3.0592,-3.0586,-3.0533,-3.0562,-3.0522,-3.0484,-3.0521,-3.0479,-3.0476,-3.0449,-3.0444,-3.0435,-3.0431,-3.0428,-3.0399,-3.0398,-3.0398,-3.0398,0,0,0,0,0,0,0,-3.0664,-3.0658,-3.0612,-3.0596,-3.059,-3.0568,-3.0559,-3.0554,-3.0497,-3.0518,-3.0511,-3.0504,-3.0445,-3.0436,-3.0432,-3.0427,-3.0399,-3.0398,-3.0397,-3.0397,-3.0441,-3.0443,0,0,0,0,0,0,-3.0675,-3.0661,-3.0615,-3.061,-3.0619,-3.0568,-3.0559,-3.0552,-3.0496,-3.0486,-3.0506,-3.05,-3.0439,-3.0434,-3.0429,-3.046,-3.0398,-3.0397,-3.0396,-3.0439,-3.0441,-3.0443,0,0,0,0,0,0,-3.0676,-3.0671,-3.0618,-3.0634,-3.0625,-3.0569,-3.0562,-3.0551,-3.0542,-3.0487,-3.0477,-3.0507,-3.0437,-3.0431,-3.0433,-3.0456,-3.0396,-3.0395,-3.0437,-3.044,-3.0442,-3.0523,0,0,0,0,0,0,-3.0679,-3.0673,-3.0685,-3.0635,-3.0625,-3.0624,-3.0564,-3.0551,-3.054,-3.0532,-3.0486,-3.0476,-3.0435,-3.0435,-3.0432,-3.0453,-3.0394,-3.0435,-3.0438,-3.0442,-3.0518,-3.0528,-3.0537,0,0,0,0,0,-3.0681,-3.0711,-3.0686,-3.0681,-3.0639,-3.0625,-3.0619,-3.0572,-3.0543,-3.0554,-3.0518,-3.0478,-3.0454,-3.0436,-3.0432,-3.0453,-3.0433,-3.0437,-3.0441,-3.0514,-3.0526,-3.0537,0,0,0,0,0,0,-3.0766,-3.0704,-3.0675,-3.069,-3.0664,-3.0611,-3.0624,-3.0587,-3.0568,-3.0562,-3.0503,-3.0493,-3.0501,-3.0478,-3.0458,-3.0479,-3.0437,-3.0441,-3.0494,-3.0505,-3.0515,-3.052,-3.0393,0,0,0,0,0,-3.0786,-3.0781,-3.0726,-3.0745,-3.0733,-3.0681,-3.0673,-3.0638,-3.0608,-3.0597,-3.0561,-3.0533,-3.0519,-3.0511,-3.0496,-3.0514,-3.0501,-3.0527,-3.0536,-3.0544,-3.0547,-3.0552,-3.0562,-3.0457,-3.0457,-3.0457,0,0,-3.0828,-3.0794,-3.0794,-3.0761,-3.0736,-3.073,-3.0672,-3.0669,-3.0663,-3.0596,-3.0595,-3.0568,-3.0533,-3.0542,-3.0545,-3.0523,-3.0573,-3.055,-3.0556,-3.0555,-3.0557,-3.0567,-3.0576,-3.046,-3.046,-3.0459,0,0,-3.0901,-3.0876,-3.0887,-3.0863,-3.0826,-3.0791,-3.0793,-3.0746,-3.0725,-3.0723,-3.0671,-3.0663,-3.0642,-3.0617,-3.0602,-3.0663,-3.0624,-3.066,-3.0709,-3.0714,-3.0722,-3.0729,-3.0747,-3.0755,-3.0663,-3.0664,-3.0664,0,-3.0958,-3.0948,-3.0897,-3.0896,-3.0882,-3.082,-3.083,-3.0809,-3.0769,-3.076,-3.0736,-3.0704,-3.0676,-3.0677,-3.0692,-3.0683,-3.0682,-3.0664,-3.0725,-3.0731,-3.0737,-3.0754,-3.0762,-3.0668,-3.0667,-3.0667,-3.0667,0,-3.1018,-3.1012,-3.1025,-3.0987,-3.0974,-3.0979,-3.0927,-3.092,-3.0886,-3.0853,-3.085,-3.0814,-3.0788,-3.0786,-3.0754,-3.0782,-3.0769,-3.0736,-3.0693,-3.0752,-3.0767,-3.0773,-3.0674,-3.0673,-3.0671,-3.067,0,0,-3.1143,-3.1075,-3.1081,-3.1061,-3.1015,-3.1008,-3.1009,-3.0984,-3.0977,-3.0952,-3.0949,-3.093,-3.0898,-3.0881,-3.0845,-3.0849,-3.0896,-3.0815,-3.0813,-3.0829,-3.0921,-3.0944,-3.0953,-3.087,-3.0871,-3.0872,-3.0923,0,-3.1206,-3.1204,-3.1157,-3.1167,-3.1159,-3.1099,-3.1099,-3.1069,-3.1038,-3.1025,-3.099,-3.0976,-3.0937,-3.0925,-3.0928,-3.089,-3.0913,-3.0886,-3.0864,-3.0864,-3.0873,-3.0961,-3.0987,-3.1037,-3.0928,-3.093,-3.093,0,-3.1279,-3.1256,-3.1266,-3.1217,-3.1211,-3.1212,-3.1183,-3.1173,-3.1137,-3.1114,-3.1093,-3.1052,-3.1046,-3.1007,-3.0997,-3.0979,-3.0968,-3.0948,-3.0948,-3.0943,-3.09,-3.0956,-3.1052,-3.1059,-3.094,-3.0939,-3.0938,0,-3.1366,-3.1338,-3.1339,-3.1325,-3.1268,-3.1269,-3.1246,-3.1208,-3.1195,-3.1169,-3.1159,-3.1134,-3.112,-3.11,-3.1051,-3.1028,-3.1046,-3.1003,-3.1024,-3.1025,-3.103,-3.103,-3.1123,-3.1026,-3.1026,-3.1026,-3.1026,0,-3.144,-3.1447,-3.1377,-3.1377,-3.1383,-3.1328,-3.1335,-3.1305,-3.1272,-3.1264,-3.1211,-3.1204,-3.1142,-3.1127,-3.1089,-3.1085,-3.108,-3.1059,-3.1048,-3.1062,-3.1065,-3.1052,-3.1047,-3.1028,-3.1027,-3.1027,-3.1027,0,-3.1537,-3.1491,-3.1487,-3.1434,-3.142,-3.1426,-3.1379,-3.1376,-3.1341,-3.1331,-3.1326,-3.127,-3.125,-3.12,-3.1167,-3.1141,-3.1146,-3.1128,-3.1158,-3.1151,-3.1173,-3.1171,-3.126,-3.1268,-3.1169,-3.117,-3.1171,0,-3.1587,-3.1591,-3.1537,-3.1528,-3.1506,-3.1493,-3.1479,-3.1424,-3.1411,-3.1369,-3.1371,-3.1346,-3.1324,-3.1294,-3.125,-3.1223,-3.1203,-3.1236,-3.1198,-3.1211,-3.12,-3.1199,-3.1198,-3.1244,-3.1245,-3.1246,-3.1247,0,-3.1678,-3.1654,-3.1636,-3.161,-3.1594,-3.157,-3.1543,-3.1539,-3.1477,-3.1465,-3.1443,-3.1426,-3.1391,-3.1367,-3.1333,-3.1306,-3.1265,-3.1259,-3.1262,-3.1275,-3.1291,-3.128,-3.1178,-3.1257,-3.1256,-3.1255,-3.1255,-3.1254,-3.1751,-3.1751,-3.1712,-3.1693,-3.1667,-3.1642,-3.1636,-3.1599,-3.1581,-3.1549,-3.1517,-3.1499,-3.1459,-3.141,-3.1385,-3.1368,-3.1348,-3.1353,-3.1353,-3.1355,-3.136,-3.1296,-3.1362,-3.1362,-3.1362,-3.1361,-3.1361,0,-3.1837,-3.1809,-3.1792,-3.1756,-3.174,-3.1704,-3.1671,-3.166,-3.1644,-3.1612,-3.159,-3.1564,-3.1539,-3.1492,-3.1462,-3.1457,-3.1438,-3.1451,-3.145,-3.1444,-3.1382,-3.1381,-3.1468,-3.1468,-3.1468,-3.1468,-3.1468,-3.1467,-3.188,-3.1877,-3.1848,-3.183,-3.1801,-3.1783,-3.1767,-3.1743,-3.1717,-3.169,-3.1669,-3.1639,-3.1599,-3.1565,-3.154,-3.1526,-3.1517,-3.1536,-3.1516,-3.1459,-3.1449,-3.1439,-3.1438,-3.1535,-3.1535,-3.1579,-3.1579,-3.158]}]]